N85NS PTKK-PGUM

Flight info

Callsign N85NS
Flight time 1h 17m
Altitude 43000
Route WUMVE GUNSS
Aircraft C750/M-SBDE3FGHRWXY/S

Departure

Time 2026-05-06 01:21
Airport Chuuk International Airport (PTKK)

Arrival

Time 2026-05-06 02:38
Airport Antonio B. Won Pat International Airport (PGUM)
Time Latitude Longitude Altitude Speed Heading
2026-05-05 23:09 7.45820 151.84141 11 ft 0 kts 226°
2026-05-05 23:28 7.45819 151.84140 11 ft 2 kts 226°
2026-05-05 23:28 7.45800 151.84113 11 ft 3 kts 284°
2026-05-05 23:29 7.45844 151.84109 12 ft 11 kts 20°
2026-05-05 23:29 7.45900 151.84155 12 ft 3 kts 106°
2026-05-05 23:29 7.45890 151.84154 12 ft 2 kts 214°
2026-05-05 23:29 7.45883 151.84147 12 ft 0 kts 228°
2026-05-06 01:10 7.45876 151.84139 12 ft 5 kts 228°
2026-05-06 01:10 7.45851 151.84100 12 ft 8 kts 266°
2026-05-06 01:11 7.45863 151.84065 12 ft 0 kts 313°
2026-05-06 01:18 7.45867 151.84061 12 ft 3 kts 314°
2026-05-06 01:18 7.45899 151.84027 12 ft 9 kts 301°
2026-05-06 01:18 7.45868 151.83958 12 ft 15 kts 225°
2026-05-06 01:18 7.45792 151.83879 11 ft 18 kts 225°
2026-05-06 01:19 7.45683 151.83764 11 ft 22 kts 239°
2026-05-06 01:19 7.45635 151.83708 10 ft 10 kts 135°
2026-05-06 01:19 7.45656 151.83741 10 ft 10 kts 43°
2026-05-06 01:19 7.45668 151.83753 11 ft 0 kts 46°
2026-05-06 01:20 7.45706 151.83794 11 ft 39 kts 47°
2026-05-06 01:21 7.46167 151.84271 12 ft 140 kts 46°
2026-05-06 01:21 7.46922 151.85030 415 ft 163 kts 46°
2026-05-06 01:21 7.47783 151.85867 961 ft 185 kts 46°
2026-05-06 01:21 7.48779 151.86832 1392 ft 210 kts 47°
2026-05-06 01:22 7.50102 151.87487 2128 ft 222 kts 10°
2026-05-06 01:22 7.51583 151.87026 2936 ft 235 kts 327°
2026-05-06 01:22 7.52524 151.85662 3678 ft 242 kts 296°
2026-05-06 01:22 7.53205 151.84033 4326 ft 264 kts 294°
2026-05-06 01:23 7.53956 151.82260 4943 ft 286 kts 294°
2026-05-06 01:23 7.54745 151.80410 5916 ft 288 kts 294°
2026-05-06 01:23 7.55550 151.78540 6847 ft 292 kts 293°
2026-05-06 01:23 7.56380 151.76657 7842 ft 296 kts 294°
2026-05-06 01:24 7.57227 151.74748 8852 ft 301 kts 293°
2026-05-06 01:24 7.58101 151.72816 9878 ft 304 kts 293°
2026-05-06 01:24 7.59005 151.70841 10470 ft 321 kts 294°
2026-05-06 01:24 7.59983 151.68749 10659 ft 348 kts 295°
2026-05-06 01:25 7.61247 151.66567 10815 ft 372 kts 304°
2026-05-06 01:25 7.62923 151.64567 11598 ft 373 kts 313°
2026-05-06 01:25 7.64748 151.62684 12323 ft 378 kts 315°
2026-05-06 01:25 7.66571 151.60746 13030 ft 383 kts 311°
2026-05-06 01:26 7.68286 151.58673 13759 ft 387 kts 308°
2026-05-06 01:26 7.70013 151.56557 14342 ft 393 kts 310°
2026-05-06 01:26 7.71833 151.54483 14996 ft 396 kts 311°
2026-05-06 01:26 7.73682 151.52404 15642 ft 400 kts 311°
2026-05-06 01:27 7.75505 151.50259 16253 ft 406 kts 310°
2026-05-06 01:27 7.77338 151.48078 16932 ft 409 kts 310°
2026-05-06 01:27 7.79209 151.45905 17632 ft 413 kts 311°
2026-05-06 01:27 7.81131 151.43722 18331 ft 417 kts 311°
2026-05-06 01:28 7.83071 151.41535 18987 ft 420 kts 311°
2026-05-06 01:28 7.85018 151.39314 19646 ft 424 kts 310°
2026-05-06 01:28 7.86969 151.37075 20305 ft 428 kts 310°
2026-05-06 01:28 7.88952 151.34813 20947 ft 433 kts 310°
2026-05-06 01:29 7.90955 151.32536 21669 ft 435 kts 310°
2026-05-06 01:29 7.92971 151.30238 22354 ft 439 kts 310°
2026-05-06 01:29 7.95006 151.27910 23033 ft 443 kts 310°
2026-05-06 01:29 7.97052 151.25574 23662 ft 447 kts 310°
2026-05-06 01:30 7.99127 151.23208 24222 ft 451 kts 310°
2026-05-06 01:30 8.01215 151.20824 24737 ft 456 kts 310°
2026-05-06 01:30 8.03294 151.18450 25340 ft 459 kts 310°
2026-05-06 01:30 8.05415 151.16028 25924 ft 462 kts 310°
2026-05-06 01:31 8.07551 151.13589 26512 ft 465 kts 310°
2026-05-06 01:31 8.09700 151.11134 27089 ft 469 kts 310°
2026-05-06 01:31 8.11875 151.08649 27590 ft 474 kts 310°
2026-05-06 01:31 8.14059 151.06153 28218 ft 476 kts 310°
2026-05-06 01:32 8.16263 151.03634 28707 ft 480 kts 309°
2026-05-06 01:32 8.18481 151.01098 29187 ft 484 kts 310°
2026-05-06 01:32 8.20717 150.98541 29762 ft 486 kts 309°
2026-05-06 01:32 8.22957 150.95981 30238 ft 488 kts 310°
2026-05-06 01:33 8.25207 150.93406 30666 ft 491 kts 310°
2026-05-06 01:33 8.27469 150.90818 31163 ft 490 kts 310°
2026-05-06 01:33 8.29712 150.88254 31918 ft 483 kts 309°
2026-05-06 01:33 8.31922 150.85727 32652 ft 478 kts 309°
2026-05-06 01:34 8.34111 150.83219 33298 ft 474 kts 309°
2026-05-06 01:34 8.36286 150.80725 33909 ft 472 kts 309°
2026-05-06 01:34 8.38455 150.78242 34405 ft 471 kts 309°
2026-05-06 01:34 8.40624 150.75761 34857 ft 471 kts 309°
2026-05-06 01:35 8.42795 150.73274 35244 ft 473 kts 309°
2026-05-06 01:35 8.44975 150.70774 35677 ft 474 kts 309°
2026-05-06 01:35 8.47153 150.68279 36193 ft 473 kts 309°
2026-05-06 01:35 8.49324 150.65792 36725 ft 471 kts 310°
2026-05-06 01:36 8.51488 150.63310 37269 ft 470 kts 309°
2026-05-06 01:36 8.53646 150.60837 37802 ft 469 kts 309°
2026-05-06 01:36 8.55799 150.58367 38357 ft 468 kts 309°
2026-05-06 01:36 8.57950 150.55900 38856 ft 467 kts 309°
2026-05-06 01:37 8.60085 150.53451 39466 ft 462 kts 309°
2026-05-06 01:37 8.62197 150.51028 40039 ft 458 kts 309°
2026-05-06 01:37 8.64298 150.48617 40527 ft 456 kts 309°
2026-05-06 01:37 8.66387 150.46218 41020 ft 454 kts 309°
2026-05-06 01:38 8.68444 150.43857 41483 ft 452 kts 309°
2026-05-06 01:38 8.70520 150.41473 41937 ft 451 kts 309°
2026-05-06 01:38 8.72586 150.39100 42400 ft 449 kts 309°
2026-05-06 01:38 8.74643 150.36737 42839 ft 447 kts 309°
2026-05-06 01:39 8.78811 150.31945 42880 ft 461 kts 309°
2026-05-06 01:39 8.83114 150.27001 42892 ft 475 kts 309°
2026-05-06 01:40 8.86777 150.22789 42898 ft 484 kts 309°
2026-05-06 01:40 8.91262 150.17631 42892 ft 492 kts 309°
2026-05-06 01:41 8.95808 150.12400 42892 ft 498 kts 309°
2026-05-06 01:41 9.00398 150.07117 42896 ft 501 kts 309°
2026-05-06 01:42 9.05321 150.01446 42891 ft 504 kts 309°
2026-05-06 01:42 9.09959 149.96102 42893 ft 506 kts 309°
2026-05-06 01:43 9.14605 149.90747 42897 ft 507 kts 309°
2026-05-06 01:43 9.19259 149.85379 42893 ft 508 kts 309°
2026-05-06 01:44 9.23901 149.80025 42892 ft 509 kts 309°
2026-05-06 01:44 9.28573 149.74632 42895 ft 510 kts 309°
2026-05-06 01:45 9.33254 149.69226 42890 ft 510 kts 309°
2026-05-06 01:45 9.37937 149.63817 42890 ft 511 kts 309°
2026-05-06 01:46 9.42622 149.58403 42885 ft 511 kts 308°
2026-05-06 01:46 9.47312 149.52980 42885 ft 512 kts 308°
2026-05-06 01:47 9.52017 149.47537 42887 ft 513 kts 308°
2026-05-06 01:47 9.56726 149.42088 42887 ft 514 kts 308°
2026-05-06 01:48 9.61413 149.36662 42887 ft 515 kts 308°
2026-05-06 01:48 9.66128 149.31200 42888 ft 515 kts 308°
2026-05-06 01:49 9.70845 149.25733 42890 ft 515 kts 308°
2026-05-06 01:49 9.75564 149.20262 42897 ft 515 kts 308°
2026-05-06 01:50 9.80279 149.14792 42890 ft 515 kts 309°
2026-05-06 01:50 9.84997 149.09317 42888 ft 515 kts 309°
2026-05-06 01:51 9.89713 149.03842 42886 ft 515 kts 308°
2026-05-06 01:51 9.94441 148.98348 42876 ft 517 kts 308°
2026-05-06 01:52 9.99182 148.92839 42877 ft 519 kts 309°
2026-05-06 01:52 10.03927 148.87322 42879 ft 519 kts 308°
2026-05-06 01:53 10.08647 148.81832 42882 ft 520 kts 308°
2026-05-06 01:53 10.13399 148.76300 42885 ft 520 kts 309°
2026-05-06 01:54 10.18158 148.70760 42878 ft 522 kts 308°
2026-05-06 01:54 10.22937 148.65191 42878 ft 523 kts 308°
2026-05-06 01:55 10.27713 148.59625 42880 ft 524 kts 308°
2026-05-06 01:55 10.32501 148.54040 42883 ft 525 kts 308°
2026-05-06 01:56 10.37294 148.48449 42883 ft 524 kts 309°
2026-05-06 01:56 10.42080 148.42861 42875 ft 525 kts 308°
2026-05-06 01:57 10.46875 148.37261 42879 ft 525 kts 309°
2026-05-06 01:57 10.51668 148.31661 42880 ft 526 kts 309°
2026-05-06 01:58 10.56445 148.26074 42877 ft 527 kts 309°
2026-05-06 01:58 10.61248 148.20457 42877 ft 527 kts 309°
2026-05-06 01:59 10.66062 148.14823 42877 ft 529 kts 309°
2026-05-06 01:59 10.70903 148.09153 42883 ft 530 kts 309°
2026-05-06 02:00 10.75611 148.03416 42879 ft 528 kts 307°
2026-05-06 02:00 10.80201 147.97601 42889 ft 526 kts 308°
2026-05-06 02:01 10.84794 147.91801 42894 ft 527 kts 307°
2026-05-06 02:01 10.89381 147.85984 42892 ft 526 kts 307°
2026-05-06 02:02 10.93970 147.80177 42889 ft 528 kts 306°
2026-05-06 02:02 10.98542 147.74379 42894 ft 528 kts 306°
2026-05-06 02:03 11.03141 147.68549 42890 ft 528 kts 307°
2026-05-06 02:03 11.07727 147.62728 42889 ft 527 kts 307°
2026-05-06 02:04 11.12325 147.56893 42886 ft 529 kts 307°
2026-05-06 02:04 11.16909 147.51070 42888 ft 526 kts 306°
2026-05-06 02:05 11.21487 147.45250 42887 ft 528 kts 306°
2026-05-06 02:05 11.26072 147.39421 42890 ft 526 kts 306°
2026-05-06 02:06 11.30647 147.33597 42885 ft 526 kts 307°
2026-05-06 02:06 11.35225 147.27771 42884 ft 527 kts 307°
2026-05-06 02:07 11.39812 147.21926 42887 ft 527 kts 307°
2026-05-06 02:07 11.44370 147.16120 42888 ft 522 kts 306°
2026-05-06 02:08 11.48912 147.10324 42888 ft 523 kts 307°
2026-05-06 02:08 11.53451 147.04535 42883 ft 523 kts 306°
2026-05-06 02:09 11.57220 146.99721 42885 ft 522 kts 307°
2026-05-06 02:09 11.62498 146.92979 42882 ft 524 kts 306°
2026-05-06 02:10 11.66269 146.88158 42881 ft 523 kts 306°
2026-05-06 02:10 11.70845 146.82308 42880 ft 525 kts 306°
2026-05-06 02:11 11.75360 146.76529 42884 ft 524 kts 306°
2026-05-06 02:11 11.79903 146.70712 42885 ft 524 kts 307°
2026-05-06 02:12 11.84450 146.64888 42885 ft 525 kts 307°
2026-05-06 02:12 11.88993 146.59063 42886 ft 524 kts 307°
2026-05-06 02:13 11.93552 146.53217 42887 ft 527 kts 306°
2026-05-06 02:13 11.98104 146.47374 42896 ft 524 kts 306°
2026-05-06 02:14 12.02615 146.41580 42897 ft 524 kts 306°
2026-05-06 02:14 12.07177 146.35720 42903 ft 524 kts 306°
2026-05-06 02:15 12.11720 146.29875 42462 ft 531 kts 306°
2026-05-06 02:15 12.14006 146.26933 41771 ft 537 kts 306°
2026-05-06 02:15 12.16361 146.23906 41056 ft 540 kts 306°
2026-05-06 02:16 12.18663 146.20946 40344 ft 536 kts 307°
2026-05-06 02:16 12.21005 146.17929 39641 ft 534 kts 307°
2026-05-06 02:16 12.23287 146.14987 38947 ft 536 kts 306°
2026-05-06 02:16 12.25602 146.12003 38196 ft 536 kts 307°
2026-05-06 02:17 12.27921 146.09019 37491 ft 536 kts 307°
2026-05-06 02:17 12.30242 146.06028 36782 ft 537 kts 306°
2026-05-06 02:17 12.32560 146.03036 36075 ft 537 kts 307°
2026-05-06 02:17 12.34875 146.00048 35373 ft 535 kts 307°
2026-05-06 02:18 12.37183 145.97070 34696 ft 534 kts 307°
2026-05-06 02:18 12.39503 145.94079 33958 ft 534 kts 307°
2026-05-06 02:18 12.41804 145.91107 33237 ft 536 kts 308°
2026-05-06 02:18 12.44122 145.88110 32560 ft 537 kts 307°
2026-05-06 02:19 12.46451 145.85102 31845 ft 540 kts 307°
2026-05-06 02:19 12.48779 145.82095 31108 ft 534 kts 307°
2026-05-06 02:19 12.51028 145.79189 30480 ft 507 kts 307°
2026-05-06 02:19 12.53164 145.76428 29778 ft 482 kts 307°
2026-05-06 02:20 12.57161 145.71251 28519 ft 449 kts 307°
2026-05-06 02:20 12.59080 145.68768 27929 ft 444 kts 307°
2026-05-06 02:20 12.60999 145.66284 27344 ft 446 kts 307°
2026-05-06 02:21 12.62931 145.63780 26754 ft 450 kts 308°
2026-05-06 02:21 12.64869 145.61271 26167 ft 449 kts 308°
2026-05-06 02:21 12.66802 145.58766 25579 ft 446 kts 308°
2026-05-06 02:21 12.68709 145.56295 24996 ft 441 kts 308°
2026-05-06 02:22 12.70609 145.53830 24422 ft 441 kts 308°
2026-05-06 02:22 12.72503 145.51374 23854 ft 438 kts 308°
2026-05-06 02:22 12.74387 145.48931 23230 ft 435 kts 309°
2026-05-06 02:22 12.76253 145.46510 22648 ft 432 kts 309°
2026-05-06 02:23 12.78113 145.44096 22081 ft 431 kts 309°
2026-05-06 02:23 12.79972 145.41682 21511 ft 429 kts 309°
2026-05-06 02:23 12.81814 145.39290 20951 ft 430 kts 310°
2026-05-06 02:23 12.83664 145.36888 20389 ft 429 kts 310°
2026-05-06 02:24 12.85512 145.34486 19823 ft 431 kts 310°
2026-05-06 02:24 12.87373 145.32068 19242 ft 431 kts 310°
2026-05-06 02:24 12.89219 145.29668 18711 ft 424 kts 310°
2026-05-06 02:24 12.91028 145.27314 18153 ft 419 kts 310°
2026-05-06 02:25 12.92809 145.24999 17555 ft 420 kts 311°
2026-05-06 02:25 12.94609 145.22659 17000 ft 415 kts 310°
2026-05-06 02:25 12.96376 145.20358 16459 ft 407 kts 310°
2026-05-06 02:26 12.99812 145.15887 15421 ft 405 kts 310°
2026-05-06 02:26 13.01531 145.13648 14883 ft 404 kts 310°
2026-05-06 02:26 13.03259 145.11395 14357 ft 402 kts 311°
2026-05-06 02:26 13.05006 145.09120 13818 ft 399 kts 310°
2026-05-06 02:27 13.06690 145.06924 13270 ft 393 kts 310°
2026-05-06 02:27 13.08372 145.04731 12779 ft 393 kts 311°
2026-05-06 02:27 13.10059 145.02534 12240 ft 389 kts 311°
2026-05-06 02:27 13.11728 145.00357 11739 ft 386 kts 310°
2026-05-06 02:28 13.13367 144.98216 11236 ft 376 kts 311°
2026-05-06 02:28 13.14942 144.96157 10743 ft 357 kts 311°
2026-05-06 02:28 13.16433 144.94209 10279 ft 338 kts 311°
2026-05-06 02:28 13.17847 144.92365 9911 ft 320 kts 311°
2026-05-06 02:29 13.19209 144.90590 9422 ft 312 kts 311°
2026-05-06 02:29 13.20543 144.88851 9000 ft 308 kts 311°
2026-05-06 02:29 13.21865 144.87126 8605 ft 307 kts 311°
2026-05-06 02:29 13.23178 144.85409 8205 ft 306 kts 311°
2026-05-06 02:30 13.24472 144.83717 7826 ft 307 kts 311°
2026-05-06 02:30 13.25794 144.81991 7419 ft 307 kts 311°
2026-05-06 02:30 13.27114 144.80265 7005 ft 307 kts 312°
2026-05-06 02:30 13.28430 144.78543 6601 ft 306 kts 312°
2026-05-06 02:31 13.29715 144.76815 6212 ft 305 kts 308°
2026-05-06 02:31 13.30452 144.74764 5714 ft 311 kts 279°
2026-05-06 02:31 13.30539 144.72573 5370 ft 305 kts 271°
2026-05-06 02:31 13.30772 144.70417 4976 ft 304 kts 282°
2026-05-06 02:32 13.31308 144.68325 4541 ft 302 kts 290°
2026-05-06 02:32 13.32125 144.66343 4162 ft 302 kts 299°
2026-05-06 02:32 13.33189 144.64513 3757 ft 296 kts 308°
2026-05-06 02:32 13.34465 144.62882 3374 ft 290 kts 317°
2026-05-06 02:33 13.35919 144.61467 2988 ft 285 kts 325°
2026-05-06 02:33 13.37010 144.60795 2860 ft 268 kts 346°
2026-05-06 02:33 13.40467 144.62104 2966 ft 237 kts 59°
2026-05-06 02:34 13.41138 144.63517 3014 ft 205 kts 69°
2026-05-06 02:34 13.41694 144.64792 3004 ft 188 kts 69°
2026-05-06 02:34 13.42252 144.66022 2793 ft 192 kts 69°
2026-05-06 02:34 13.42795 144.67209 2537 ft 168 kts 68°
2026-05-06 02:35 13.43250 144.68195 2339 ft 143 kts 68°
2026-05-06 02:35 13.43651 144.69072 2165 ft 132 kts 68°
2026-05-06 02:35 13.44047 144.69954 1974 ft 132 kts 69°
2026-05-06 02:35 13.44402 144.70744 1845 ft 119 kts 67°
2026-05-06 02:36 13.44741 144.71481 1550 ft 108 kts 68°
2026-05-06 02:36 13.45071 144.72198 1536 ft 113 kts 65°
2026-05-06 02:36 13.45434 144.72920 1418 ft 114 kts 65°
2026-05-06 02:36 13.45756 144.73645 1306 ft 111 kts 66°
2026-05-06 02:37 13.46101 144.74374 1146 ft 113 kts 67°
2026-05-06 02:37 13.46444 144.75093 1022 ft 116 kts 72°
2026-05-06 02:37 13.46774 144.75880 849 ft 121 kts 70°
2026-05-06 02:37 13.47120 144.76665 620 ft 122 kts 71°
2026-05-06 02:38 13.47468 144.77435 524 ft 120 kts 66°
2026-05-06 02:38 13.47810 144.78222 330 ft 122 kts 66°
2026-05-06 02:38 13.48161 144.78985 274 ft 109 kts 65°
2026-05-06 02:38 13.48398 144.79503 275 ft 42 kts 64°
2026-05-06 02:39 13.48497 144.79539 280 ft 12 kts 337°
2026-05-06 02:39 13.48532 144.79532 284 ft 5 kts 23°
2026-05-06 02:39 13.48568 144.79611 285 ft 19 kts 66°
2026-05-06 02:39 13.48624 144.79734 285 ft 19 kts 64°
2026-05-06 02:40 13.48678 144.79851 286 ft 18 kts 64°
2026-05-06 02:40 13.48735 144.79977 288 ft 20 kts 65°
2026-05-06 02:40 13.48794 144.80104 288 ft 19 kts 63°
2026-05-06 02:40 13.48878 144.80185 291 ft 16 kts 354°
2026-05-06 02:41 13.48928 144.80188 292 ft 0 kts 101°